Location: Chiroubles
(46.1812°N, 4.6660°E)
Time: 06:24:12
(UTC+00:00)

Transit 4A - Pass Details

Date: 02 December 2020
Orbit: 864 x 980 km, 66.8° (Epoch: 25 January)

Event Time Altitude Azimuth Distance (km) Brightness Sun altitude
Rises 15:31:23 0° 326° (NW) 3,683 11.0 2.8°
Reaches altitude 10° 15:33:59 10° 326° (NW) 2,724 10.4 2.4°
Maximum altitude 15:40:22 85° 238° (WSW) 966 8.2 1.5°
Drops below altitude 10° 15:46:33 10° 151° (SSE) 2,641 10.4 0.6°
Sets 15:49:02 0° 151° (SSE) 3,564 11.0 0.3°
